Location: Devore Heights
(34.2372°N, 117.4156°W)
Time: 18:20:36
(UTC+00:00)

Vanguard 1 Rocket - Pass Details

Date: 19 September 2024
Orbit: 650 x 4218 km, 34.3° (Epoch: 04 October)

Event Time Altitude Azimuth Distance (km) Brightness Sun altitude
Rises 20:01:41 0° 276° (W) 8,458 12.4 56.5°
Reaches altitude 10° 20:18:06 10° 243° (WSW) 7,086 12.4 55.8°
Maximum altitude 20:20:22 10° 237° (WSW) 6,954 12.4 55.7°
Drops below altitude 10° 20:22:34 10° 232° (SW) 6,846 12.5 55.5°
Sets 20:36:04 0° 195° (SSW) 6,771 12.4 54.6°
